Regional Weather Roundup
Issued by NWS

Home | Current Version | Previous Version | Graphics & Text | Print | Product List | Glossary On
Versions: 1 2 3 4 5 6 7 8 9 10 11 12 13 14 15 16 17 18 19 20 21 22 23 24 25 26 27 28 29 30 31 32 33 34 35 36 37 38 39 40 41 42 43 44 45 46 47 48 49 50
000
ASUS45 KTFX 170510
RWRMT
MONTANA REGIONAL WEATHER ROUNDUP
NATIONAL WEATHER SERVICE GREAT FALLS MT
1000 PM MST FRI FEB 16 2018

NOTE: "FAIR" INDICATES FEW OR NO CLOUDS BELOW 12000 FEET WITH NO
SIGNIFICANT WEATHER AND/OR OBSTRUCTIONS TO VISIBILITY.

MTZ001>007-043-170600-
WEST OF THE DIVIDE

CITY           SKY/WX    TMP DP  RH WIND       PRES   REMARKS
KALISPELL      MOCLDY    22  21  96 CALM      29.91R
MISSOULA       FAIR      26  24  92 E5        29.97R
BUTTE          CLOUDY    25  17  72 NW10      29.88R WCI  15
MULLAN PASS    CLOUDY    21  20  96 NW8       29.87S FOG     WCI  11
ANACONDA         N/A     27  19  74 W5        29.91R
DEER LODGE       N/A     27  21  80 NW9       29.92R WCI  17
EUREKA           N/A     25  21  86 MISG      29.92S
HAMILTON         N/A     28  27  93 MISG      29.98R
RONAN            N/A     27  25  93 SE8       29.96R WCI  18
$$

MTZ008-052>055-170600-
SOUTHWEST MONTANA

CITY           SKY/WX    TMP DP  RH WIND       PRES   REMARKS
BOZEMAN        LGT SNOW  28  24  85 W14       29.88S FOG     WCI  17
DILLON         FAIR      21  18  88 W14       29.88S WCI   8
ENNIS          CLOUDY    28  16  59 S12G18    29.92S WCI  18
W YELLOWSTONE  CLOUDY    19  16  86 SW14      29.86S WCI   6
THREE FORKS      N/A     28  25  89 S12       29.88F WCI  18
$$

MTZ009-010-012-014-046-048-049-054-170600-
EAST SLOPES AND CENTRAL MONTANA

CITY           SKY/WX    TMP DP  RH WIND       PRES   REMARKS
CUT BANK       LGT SNOW  18  15  88 N15       29.91R FOG     WCI   4
GREAT FALLS    LGT SNOW  23  19  85 CALM      29.85R FOG
MALMSTROM AFB  LGT SNOW  24  24  99 CALM      29.87R
HELENA         FAIR      29  21  72 VRB3      29.86R
AUGUSTA        MOCLDY    22  15  77 NE17G24   29.84R WCI   7
BOWMANS CRNR   FAIR      22  13  68 NW15      29.81R WCI   9
FAIRFIELD      MOCLDY    24  18  80 N12       29.87R WCI  12
POWER          SNOWSHWR  22  19  89 N14       29.86R WCI   9
RAYNESFORD     FLURRIES  25  25 100 W5        29.84R
ULM            MOCLDY    26  20  78 N8        29.84S WCI  17
WHITE SULPHUR    N/A     23  16  74 W9G15     29.78F WCI  13
$$

MTZ011-013-016-021-045-047-050-051-170600-
NORTH CENTRAL MONTANA

CITY           SKY/WX    TMP DP  RH WIND       PRES   REMARKS
HAVRE          CLOUDY    23  14  68 VRB5      29.90R
LEWISTOWN      LGT SNOW  24  23  96 NW12      29.81R FOG     WCI  13
N BAR RANCH    LGT SNOW  23  21  93 NW8       29.81R VSB 3/4 WCI  14
CHINOOK          N/A     19  12  73 NW7       29.90R WCI  10
GEYSER         FLURRIES  26  21  80 N9        29.83R WCI  17
STANFORD       LGT SNOW  24  23  96 N14       29.82R VSB 7/8 WCI  12
WINIFRED       MOCLDY    24  22  93 W7        29.82R WCI  16
$$

MTZ017>020-022>027-061-062-170600-
NORTHEAST MONTANA

CITY           SKY/WX    TMP DP  RH WIND       PRES   REMARKS
GLASGOW        CLOUDY    16  12  84 NW9       29.81R WCI   4
GLENDIVE       CLOUDY    23  20  88 W10       29.79S WCI  12
JORDAN           N/A     22  19  89 W6        29.79R WCI  14
MALTA          CLOUDY    23  14  68 N13       29.83R WCI  11
SIDNEY         MOCLDY    16  14  92 CALM      29.80S
WOLF POINT     CLOUDY    18  13  80 W6        29.81R WCI  10
PLENTYWOOD       N/A     12   7  79 CALM      29.77R
POPLAR           N/A     14  10  85 CALM      29.82R
$$

MTZ028>42-056>058-170600-
SOUTHCENTRAL AND SOUTHEAST MONTANA

CITY           SKY/WX    TMP DP  RH WIND       PRES   REMARKS
BAKER          LGT SNOW  26  25  96 W14       29.79S FOG     WCI  14
BILLINGS       CLOUDY    28  18  66 SW20      29.79S WCI  15
LIVINGSTON     FLURRIES  29  22  75 W22G29    29.81R WCI  15
MILES CITY     FAIR      21  21 100 S5        29.79F
BIG TIMBER     CLOUDY    28  23  80 W23G29    29.83R WCI  14
FORSYTH          N/A     27  25  93 W6        29.80R WCI  20
HARLOWTON      FLURRIES  27  22  82 NW15      29.80R WCI  15
LAUREL           N/A     25  18  74 SW12      29.82R WCI  14
$$

REGIONAL REPORTS...DAKOTAS

CITY           SKY/WX    TMP DP  RH WIND       PRES   REMARKS
WILLISTON      MOCLDY    19  12  74 CALM      29.78S
MINOT          CLOUDY    24  15  68 W13       29.75R WCI  12
DICKINSON      FAIR      20  18  92 W14       29.74F WCI   7
BEACH          CLOUDY    23  23 100 SW12      29.80S WCI  12
CROSBY         CLOUDY    16  12  86 W10       29.77S WCI   3
TIOGA          MOCLDY    14  14 100 W9        29.76F WCI   2
WATFORD CITY   MOCLDY    12  10  92 SW7       29.78S WCI   2
BISMARCK       MOCLDY    24  18  77 CALM      29.81R
GRAND FORKS    CLOUDY    26  18  71 W13       29.74R WCI  15
FARGO          CLOUDY    24  17  74 SW15      29.81S WCI  11
BUFFALO SD       N/A     23  20  88 W12       29.72F WCI  12
RAPID CITY     FAIR      29  19  66 NW9       29.82S WCI  20
$$

REGIONAL REPORTS...WYOMING/IDAHO/WASHINGTON

CITY           SKY/WX    TMP DP  RH WIND       PRES   REMARKS
GILLETTE       FAIR      16  12  84 S9        29.80F WCI   4
SHERIDAN       CLOUDY    27  16  63 W3        29.81R
BUFFALO WY     CLOUDY    27   8  44 SW3       29.79F
CODY           FLURRIES  29  17  61 W18G31    29.81R WCI  16
YELLOWSTONE LA   N/A     16  12  84 VRB6      29.85R WCI   7
IDAHO FALLS    FAIR      26  19  74 SW17      30.03R WCI  13
SALMON         MOCLDY    31  24  75 N7        29.97S WCI  24
BOISE          CLOUDY    35  25  66 SE9       30.16S WCI  28
SPOKANE        CLOUDY    30  29  96 SW7       30.05R WCI  23
$$

REGIONAL REPORTS...ALBERTA

CITY           SKY/WX    TMP DP  RH WIND       PRES   REMARKS
CALGARY        MOCLDY    16   9  73 N6        29.92R WCI   7
CARDSTON         N/A     18  16  93 NW6         N/A  WCI   9
EDMONTON       CLEAR     12  -2  52 W10G18    29.96R WCI  -1
FORT MCMURRAY  CLOUDY    10   0  61 W15G21    29.85S WCI  -6
HIGH LEVEL     CLEAR     12   0  57 NW10G20   29.97S WCI  -1
LETHBRIDGE     CLOUDY    19  16  86 W10       29.97R WCI   8
LLOYDMINSTER   PTCLDY     9   1  72 NW16G22   29.82S WCI  -9
MEDICINE HAT   FLURRIES  19  12  73 NW12      29.97R WCI   7
MILK RIVER       N/A     18  16  93 N12         N/A  WCI   5
ONEFOUR          N/A     16  10  79 NW20        N/A  WCI  -1
PEACE RIVER    PTCLDY     7  -8  51 NW6       30.02S WCI  -3
PINCHER CREEK  LGT SNOW  19  18  93 S9        29.93R VSB 1   WCI   9
WATERTON GATE    N/A     18  16  93 SW3         N/A
$$

REGIONAL REPORTS...SASKATCHEWAN

CITY           SKY/WX    TMP DP  RH WIND       PRES   REMARKS
CORONACH         N/A      1   0  92 NW5         N/A
CYPRESS HILLS    N/A     10   7  85 NW15G25     N/A  WCI  -6
ESTEVAN        PTCLDY     9   5  85 W7        29.75R WCI  -3
MOOSE JAW        N/A     10   7  85 W9          N/A  WCI  -2
PRINCE ALBERT  CLEAR      0  -4  85 W5        29.80R
REGINA         PTCLDY     3   1  92 W12       29.77R WCI -13
ROCKGLEN         N/A     14  12  92 NW9         N/A  WCI   2
SASKATOON      PTCLDY     1  -2  85 NW9       29.83R WCI -14
SWIFT CURRENT  FLURRIES  12   9  85 W13G18    29.80  WCI  -3
VAL MARIE        N/A     12   7  79 NW10        N/A  WCI  -1
$$



USA.gov is the U.S. government's official web portal to all federal, state and local government web resources and services.